User: anonymous   Login
Location: Unspecified
(0.0000°N, 0.0000°E)
Time: 00:20:41
(UTC+00:00)
Language:

Tancredo 1 - Orbit

View from above orbital plane
View from above orbital plane
View from above satellite
View from above satellite

Ground track
Ground track

The orbit data is extracted from the following two-line orbital elements,

1 41931U 98067KT  17231.79400272  .00103728  00000-0  70018-3 0  9993
2 41931  51.6338  65.8419 0005006 174.1188 185.9871 15.74258687 33592
Epoch (UTC): 19 August 2017 19:03:21
Eccentricity: 0.0005006
inclination: 51.6338°
perigee height: 343 km
apogee height: 350 km
right ascension of ascending node: 65.8419°
argument of perigee: 174.1188°
revolutions per day: 15.74258687
mean anomaly at epoch: 185.9871°
orbit number at epoch: 3359

The dashed part of the orbit path shows where the satellite is in the earth's shadow,  

DLR